Location: Ar Ranvel
(48.3000°N, 4.8833°W)
Time: 08:28:50
(UTC+00:00)

ISS - Pass Details

Date: 28 September 2021
Orbit: 417 x 423 km, 51.6° (Epoch: 23 October)

Event Time Altitude Azimuth Distance (km) Brightness Sun altitude
Rises 18:57:04 0° 284° (WNW) 2,365 2.3 -9.5°
Reaches altitude 10° 18:59:12 10° 291° (WNW) 1,501 0.5 -9.9°
Maximum altitude 19:02:29 47° 7° (N) 562 -3.1 -10.4°
Enters shadow 19:04:59 16° 78° (ENE) 1,205 -2.0 -10.9°
